This demonstration page uses our WeatherBlox Daily Observations layout. Learn more.

Left ArrowRight Arrow

31.31129, -92.44514

Hourly Observations for July 29, 2022

Temp ( °F °C ) Dew Point ( °F °C ) Humidity (%) Winds ( mph kmh ) Pressure ( in mb ) Visibility ( mi km ) Precip ( " mm )
12:53 am 00:53 Clear 78 25.6 74 23.3 87 87 S 5 7 29.99 1016 10 16 0.00 0.00
1:53 am 01:53 Clear 77 25 74 23.3 90 90 SSE 5 7 29.99 1016 10 16 0.00 0.00
2:53 am 02:53 Clear 77 25 74 23.3 90 90 SSE 3 6 30.00 1016 10 16 0.00 0.00
3:53 am 03:53 Clear 77 25 74 23.3 90 90 SSE 7 11 30.01 1016 10 16 0.00 0.00
4:53 am 04:53 Mostly Clear 77 25 74 23.3 90 90 SSE 5 7 30.02 1017 10 16 0.00 0.00
5:53 am 05:53 Clear 76 24.4 73 22.8 91 91 S 5 7 30.02 1017 9 14 0.00 0.00
6:53 am 06:53 Sunny 76 24.4 73 22.8 91 91 Calm 30.04 1017 7 11 0.00 0.00
7:53 am 07:53 Sunny 79 26.1 75 23.9 88 88 SSE 3 6 30.05 1018 8 13 0.00 0.00
8:53 am 08:53 Sunny 83 28.3 77 25 82 82 Calm 30.06 1018 10 16 0.00 0.00
9:53 am 09:53 Sunny 85 29.4 76 24.4 75 75 VRB 3 6 30.07 1018 10 16 0.00 0.00
10:53 am 10:53 Partly Cloudy 90 32.2 75 23.9 62 62 W 7 11 30.06 1018 10 16 0.00 0.00
11:53 am 11:53 Mostly Sunny 93 33.9 72 22.2 50 50 W 8 13 30.06 1018 10 16 0.00 0.00
12:53 pm 12:53 Mostly Sunny 94 34.4 71 21.7 48 48 WSW 8 13 30.05 1018 10 16 0.00 0.00
1:53 pm 13:53 Sunny 97 36.1 71 21.7 43 43 SSW 8 13 30.02 1017 10 16 0.00 0.00
2:53 pm 14:53 Sunny 98 36.7 70 21.1 40 40 S 8 13 29.99 1016 10 16 0.00 0.00
3:53 pm 15:53 Partly Cloudy with Nearby Thunderstorms 91 32.8 73 22.8 56 56 SSE 14 22 30.02 1017 10 16 0.00 0.00
4:08 pm 16:08 Mostly Cloudy 86 30 73 22.8 65 65 SE 21 33 30.02 1016 10 16 0.00 0.00
4:35 pm 16:35 Partly Cloudy with Nearby Thunderstorms 84 28.9 71 21.7 65 65 SE 20 31 30.01 1016 10 16 0.00 0.00
4:53 pm 16:53 Sunny 84 28.9 72 22.2 67 67 SE 15 24 30.01 1016 10 16 0.00 0.00
5:53 pm 17:53 Sunny 82 27.8 72 22.2 72 72 SSE 10 17 30.00 1016 10 16 0.00 0.00
6:53 pm 18:53 Sunny 82 27.8 72 22.2 72 72 S 10 17 30.00 1016 10 16 0.00 0.00
7:53 pm 19:53 Sunny 81 27.2 73 22.8 77 77 SE 8 13 30.03 1017 10 16 0.00 0.00
8:53 pm 20:53 Clear 80 26.7 73 22.8 79 79 E 3 6 30.05 1018 10 16 0.00 0.00
9:53 pm 21:53 Clear 80 26.7 73 22.8 79 79 SE 7 11 30.06 1018 10 16 0.00 0.00
10:53 pm 22:53 Clear 79 26.1 73 22.8 82 82 E 3 6 30.07 1018 10 16 0.00 0.00
11:53 pm 23:53 Clear 79 26.1 73 22.8 82 82 ESE 7 11 30.06 1018 10 16 0.00 0.00

Powered by AerisWeather